Weather History for Cortez, CO

Change the Weather History Date:

Tuesday, March 11, 2014

  Actual Average Record
Temperature  
Mean Temperature 40 °F 38 °F  
Max Temperature 51 °F 53 °F 68 °F (1997)
Min Temperature 28 °F 23 °F 12 °F (2009)
Degree Days  
Heating Degree Days 25 27  
Month to date heating degree days 263 312  
Since 1 July heating degree days 4847 5042  
Cooling Degree Days 0 0  
Month to date cooling degree days 0 0  
Year to date cooling degree days 0 0  
Moisture  
Dew Point 16 °F    
Average Humidity 40    
Maximum Humidity 63    
Minimum Humidity 16    
Precipitation  
Precipitation 0.00 in 0.04 in 0.09 in (2006)
Month to date precipitation 0.20 0.52  
Year to date precipitation 1.04 2.41  
Sea Level Pressure  
Sea Level Pressure 29.96 in    
Wind  
Wind Speed 10 mph (North)    
Max Wind Speed 25 mph    
Max Gust Speed 32 mph    
Visibility 10 miles    
Events      
T = Trace of Precipitation, MM = Missing Value Source: NWS Daily Summary

Daily Weather History Graph

Daily Weather History Graph

Search for Another Location

Airport:

Trip Planner

Search our weather history database for the weather conditions in past years. The results will help you decide how hot, cold, wet, or windy it might be!

Date:

Astronomy

Mar. 11, 2014 Rise Set
Actual Time 7:31 AM MDT 7:18 PM MDT
Civil Twilight 7:05 AM MDT 7:44 PM MDT
Nautical Twilight 6:35 AM MDT 8:14 PM MDT
Astronomical Twilight 6:04 AM MDT 8:44 PM MDT
Moon 3:01 PM MDT (3/11) 4:22 AM MDT (3/11)
Length of Visible Light 12h 38m
Length of Day
11h 46m
Waxing Gibbous, 78% of the Moon is Illuminated
Mar 11
Waxing Gibbous
Mar 16
Full
Mar 23
Last Quarter
Mar 30
New
Apr 7
First Quarter

Hourly Weather History & Observations

Time (MDT) Temp. Windchill Dew Point Humidity Pressure Visibility Wind Dir Wind Speed Gust Speed Precip Events Conditions
12:53 AM 32.0 °F 25.6 °F 19.9 °F 61% 29.83 in 10.0 mi ENE 6.9 mph - N/A   Partly Cloudy
1:53 AM 34.0 °F 28.0 °F 21.0 °F 59% 29.80 in 10.0 mi ENE 6.9 mph - N/A   Clear
2:53 AM 35.1 °F 29.3 °F 19.9 °F 54% 29.80 in 10.0 mi ENE 6.9 mph - N/A   Clear
3:53 AM 30.9 °F 26.2 °F 19.0 °F 61% 29.79 in 10.0 mi NE 4.6 mph - N/A   Clear
4:53 AM 37.9 °F 32.7 °F 23.0 °F 55% 29.81 in 10.0 mi East 6.9 mph - N/A   Clear
5:53 AM 37.9 °F 34.4 °F 24.1 °F 57% 29.82 in 10.0 mi Variable 4.6 mph - N/A   Clear
6:53 AM 36.0 °F 29.6 °F 19.9 °F 52% 29.87 in 10.0 mi WNW 8.1 mph - N/A   Clear
7:53 AM 35.1 °F 27.9 °F 16.0 °F 46% 29.93 in 10.0 mi North 9.2 mph - N/A   Clear
8:53 AM 39.0 °F 31.4 °F 14.0 °F 36% 29.95 in 10.0 mi NNW 12.7 mph 20.7 mph N/A   Clear
9:53 AM 42.1 °F 34.2 °F 15.1 °F 34% 29.97 in 10.0 mi NW 16.1 mph 21.9 mph N/A   Clear
10:53 AM 43.0 °F 33.3 °F 14.0 °F 31% 30.00 in 10.0 mi NNW 25.3 mph 31.1 mph N/A   Clear
11:53 AM 45.0 °F 37.9 °F 12.0 °F 26% 29.99 in 10.0 mi North 16.1 mph 25.3 mph N/A   Partly Cloudy
12:53 PM 46.9 °F - 10.9 °F 23% 29.98 in 10.0 mi NNW 16.1 mph 25.3 mph N/A   Partly Cloudy
1:53 PM 48.9 °F - 9.0 °F 20% 29.96 in 10.0 mi NNW 16.1 mph 23.0 mph N/A   Scattered Clouds
2:38 PM 46.0 °F 40.2 °F 9.0 °F 22% 30.02 in 10.0 mi NNW 12.7 mph 21.9 mph N/A   Scattered Clouds
2:53 PM 48.9 °F - 10.0 °F 21% 29.96 in 10.0 mi NNE 16.1 mph 26.5 mph N/A   Scattered Clouds
3:53 PM 51.1 °F - 6.1 °F 16% 29.97 in 10.0 mi NNW 9.2 mph 20.7 mph N/A   Partly Cloudy
4:27 PM 46.0 °F 39.9 °F 8.1 °F 21% 30.03 in 10.0 mi North 13.8 mph 23.0 mph N/A   Overcast
4:53 PM 48.0 °F - 10.0 °F 22% 29.96 in 10.0 mi NNW 17.3 mph 27.6 mph N/A   Partly Cloudy
5:53 PM 46.9 °F - 16.0 °F 29% 29.98 in 10.0 mi NNE 18.4 mph 27.6 mph N/A   Scattered Clouds
6:53 PM 42.1 °F 34.9 °F 18.0 °F 38% 30.04 in 10.0 mi North 13.8 mph 24.2 mph N/A   Clear
7:53 PM 39.0 °F 32.3 °F 17.1 °F 41% 30.07 in 10.0 mi North 10.4 mph - N/A   Clear
8:53 PM 35.1 °F 31.0 °F 21.9 °F 59% 30.10 in 10.0 mi NE 4.6 mph - N/A   Clear
9:53 PM 32.0 °F - 21.0 °F 64% 30.12 in 10.0 mi Calm Calm - N/A   Clear
10:53 PM 30.0 °F - 19.0 °F 64% 30.13 in 10.0 mi Calm Calm - N/A   Clear
11:53 PM 32.0 °F - 18.0 °F 56% 30.12 in 10.0 mi Calm Calm - N/A   Clear